Regional Weather Roundup
Issued by NWS

Home | Current Version | Previous Version | Text Only | Print | Product List | Glossary On
Versions: 1 2 3 4 5 6 7 8 9 10 11 12 13 14 15 16 17 18 19 20 21 22 23 24 25 26 27 28 29 30 31 32 33 34 35 36 37 38 39 40 41 42 43 44 45 46 47 48 49 50
000
ASUS43 KDTX 190110
RWRMI
MICHIGAN HOURLY REGIONAL WEATHER ROUNDUP
NATIONAL WEATHER SERVICE DETROIT/PONTIAC MI
900 PM EDT FRI AUG 18 2017

NOTE: "FAIR" INDICATES FEW OR NO CLOUDS BELOW 12,000 FEET WITH NO
SIGNIFICANT WEATHER AND/OR OBSTRUCTION TO VISIBILITY.

MIZ047>049-052>055-059>063-066>070-074>076-081>083-190200-
SOUTHEAST LOWER MICHIGAN

CITY           SKY/WX    TMP DP  RH WIND       PRES   REMARKS
ADRIAN         CLEAR     70  61  73 NW6       29.88R
ALMA           CLOUDY    67  60  77 SW6       29.85R
ANN ARBOR      CLOUDY    71  61  70 W9        29.86R
BAD AXE        CLOUDY    66  62  86 W6        29.81S
CARO           CLOUDY    68  60  75 W8        29.82R
DETROIT CITY   CLOUDY    73  60  63 W10       29.83R
DETROIT        MOCLDY    73  61  65 W13       29.85R
FLINT          CLOUDY    68  59  73 W9        29.84R
GROSSE ILE     CLOUDY    73  61  65 NW6       29.84R
HILLSDALE      CLOUDY    64  59  82 NW3       29.88S
HOWELL         CLOUDY    69  59  71 W8        29.86R

CITY           SKY/WX    TMP DP  RH WIND       PRES   REMARKS
JACKSON        CLEAR     67  59  75 W5        29.87S
LAMBERTVILLE   PTCLDY    71  62  72 CALM      29.85R
LANSING        CLOUDY    69  57  65 W6        29.86S
LAPEER         CLOUDY    69  59  70 W9G18     29.83R
MASON          CLOUDY    70  60  71 W6        29.87R
MONROE         CLEAR     70  61  73 W6        29.84R
MT. CLEMENS    CLOUDY    72  60  66 W13       29.81R
PONTIAC        CLOUDY    70  60  70 W18       29.84R
PORT HOPE        N/A     68  61  78 W8        29.77R
PORT HURON     CLOUDY    72  61  68 W3        29.82R
TRI CITIES     CLOUDY    68  62  81 W12       29.83R
MIDLAND        CLOUDY    67  59  74 W5        29.82S
TROY           CLOUDY    73  61  66 W9        29.85S
SAGINAW HB     CLOUDY    68  59  73 W9        29.82R
$$
MIZ043>046-050>051-056>058-064>065-071>073-077>080-190200-
SOUTHWEST LOWER MICHIGAN

CITY           SKY/WX    TMP DP  RH WIND       PRES   REMARKS
BATTLE CREEK   CLEAR     67  60  78 W5        29.88S
BENTON HARBOR  CLEAR     67  61  81 CALM      29.86S
BIG RAPIDS     CLOUDY    64  60  87 CALM      29.83S
COLDWATER      CLEAR     69  61  76 CALM      29.88R
FREMONT        CLOUDY    66  64  92 CALM      29.84R
HOLLAND        CLEAR     65  61  87 CALM      29.86S
GRAND RAPIDS   MOCLDY    68  61  78 SW6       29.86R
IONIA          CLOUDY    67  58  73 W5        29.85S
KALAMAZOO      CLEAR     69  58  67 NW3       29.87S
LUDINGTON      CLOUDY    67  61  83 CALM      29.82S
MARSHALL       PTCLDY    66  60  80 W6        29.87S
MOUNT PLEASANT CLOUDY    69  59  72 W6        29.83S
MUSKEGON       CLOUDY    69  62  78 SW3       29.85R
SOUTH HAVEN    CLEAR     66  63  89 CALM      29.86S
$$
MIZ016>042-190200-
NORTHERN LOWER MICHIGAN

CITY           SKY/WX    TMP DP  RH WIND       PRES   REMARKS
ALPENA         MOCLDY    63  59  87 W8        29.76S
BEAVER ISLAND  CLOUDY    63  57  82 W10       29.80S
BELLAIRE       RAIN      63  59  88 CALM      29.81S
CADILLAC       CLOUDY    64  60  86 W3        29.83S
CHARLEVOIX     CLOUDY    64  58  80 NW14      29.83S
FRANKFORT      CLOUDY    67  62  83 NW5       29.82S
GAYLORD        CLOUDY    59  56  89 W10G17    29.80S
GRAYLING       CLOUDY    62  58  87 W6        29.81F
HARBOR SPRINGS CLOUDY    62  56  82 W8        29.79S
HOUGHTON LAKE  CLOUDY    63  59  87 W10       29.82S
MANISTEE       CLOUDY    66  61  84 CALM      29.81F
OSCODA         CLOUDY    67  59  76 NW5       29.78R
PELLSTON       CLOUDY    63  56  78 W10       29.79R
ROGERS CITY    CLOUDY    63  57  82 W6        29.77S
TRAVERSE CITY  CLOUDY    66  58  75 NW7       29.80S
$$
MIZ007>008-015-190200-
EASTERN UPPER MICHIGAN

CITY           SKY/WX    TMP DP  RH WIND       PRES   REMARKS
KINROSS        CLOUDY    60  57  89 W8        29.74S
MACKINAC ISLAN CLOUDY    62  59  91 W14G20    29.76S
NEWBERRY       CLOUDY    58  57  97 W8        29.77R
S. S. MARIE    CLOUDY    60  59  96 W9        29.72R FOG
MUNISING         N/A     64  59  83 NW10      29.80R
$$
MIZ004>006-011>014-085-190200-
CENTRAL UPPER MICHIGAN

CITY           SKY/WX    TMP DP  RH WIND       PRES   REMARKS
MANISTIQUE     CLOUDY    59  54  82 NW7       29.80R
ESCANABA       CLOUDY    63  58  83 W3        29.82S
MENOMINEE      CLOUDY    63  57  81 CALM      29.84S
SAWYER-GWINN   CLOUDY    61  55  82 W5        29.83R
$$
MIZ001>003-009>011-084-190200-
WESTERN UPPER MICHIGAN

CITY           SKY/WX    TMP DP  RH WIND       PRES   REMARKS
IRON MOUNTAIN  CLOUDY    63  55  75 NW5       29.83S
HOUGHTON       PTCLDY    61  56  83 W8        29.82R
COPPER HARBOR    N/A     62  55  77 VRB3      29.80R
IRONWOOD       CLOUDY    61  59  93 CALM      29.87R
$$

ABBREVIATIONS USED IN REMARKS
   TC - TEMPERATURE IN CELSIUS
  WCI - WIND CHILL INDEX
   HX - HEAT INDEX
  VSB - VISIBILITY





USA.gov is the U.S. government's official web portal to all federal, state and local government web resources and services.